sat.trackr.live / text

‹ back to catalog

ONEWEB-0310

NORAD 49096 · 2021-075X

PAYLOAD ACTIVE UNKNOWN

§ Identity

Operator
Country
UK
Launch date
2021-08-21
Launch site
TYMSC
Launch vehicle
Mass (kg)
RCS (m²)

Purposes: comms

External: N2YO · Heavens-Above · Gunter

§ Orbital elements

Epoch: 2026-05-25T03:15:28.552896Z

Period
109.72 min
Inclination
87.8951°
Eccentricity
0.0001752
Mean motion
13.12441333 rev/d
Perigee alt
1,212.4 km
Apogee alt
1,215.1 km
Semi-major
7,591.9 km
B*
-5.1564e-4
RAAN
355.2662°
Arg perigee
86.2065°
Mean anomaly
273.9264°
Rev number
23,216

§ Raw data

ONEWEB-03101 49096U 21075X   26145.13574714 -.00000173  00000+0 -51564-3 0  99992 49096  87.8951 355.2662 0001752  86.2065 273.9264 13.12441333232161

JSON: /api/v1/satellites/49096 · /tle

For live sub-satellite position, see the globe view (requires WebGL).

§ Visibility from observer

Set your observer location to see the next 7 days of passes ≥ 10°. The values pass through the URL so the page stays shareable.

No JS? Fill the form by hand. The geolocation button needs JavaScript.